Weather History for Resia Pass, Italy

Change the Weather History Date:

Monday, September 23, 2013

  Actual Average Record
Temperature  
Mean Temperature 58 °F -  
Max Temperature 71 °F 56 °F 71 °F (2013)
Min Temperature 46 °F 41 °F 35 °F (2000)
Degree Days  
Heating Degree Days 6    
Growing Degree Days 8 (Base 50)    
Moisture  
Dew Point 39 °F    
Average Humidity 58    
Maximum Humidity 87    
Minimum Humidity 17    
Precipitation  
Precipitation 0.00 in - - ()
Sea Level Pressure  
Sea Level Pressure 30.28 in    
Wind  
Wind Speed 6 mph ()    
Max Wind Speed 10 mph    
Max Gust Speed 25 mph    
Averages and records for this station are not official NWS values.
T = Trace of Precipitation, MM = Missing Value Source: Averaged Metar Reports

Daily Weather History Graph

Daily Weather History Graph

Search for Another Location

Airport:

Trip Planner

Search our weather history database for the weather conditions in past years. The results will help you decide how hot, cold, wet, or windy it might be!

Date:

Astronomy

Sep. 23, 2013 Rise Set
Actual Time 7:06 AM CEST 7:13 PM CEST
Civil Twilight 6:35 AM CEST 7:43 PM CEST
Nautical Twilight 6:00 AM CEST 8:19 PM CEST
Astronomical Twilight 5:23 AM CEST 8:55 PM CEST
Moon 9:16 PM CEST (9/23) 11:26 AM CEST (9/23)
Length of Visible Light 13h 08m
Length of Day
12h 07m
Waning Gibbous, 83% of the Moon is Illuminated
Sep 23
Waning Gibbous
Sep 27
Last Quarter
Oct 5
New
Oct 12
First Quarter
Oct 19
Full

Hourly Weather History & Observations

Time (CEST) Temp. Windchill Dew Point Humidity Pressure Visibility Wind Dir Wind Speed Gust Speed Precip Events Conditions
12:55 AM 50.0 °F - 42.8 °F 76% 30.39 in - North 6.9 mph - N/A   Clear
1:55 AM 50.0 °F - 44.6 °F 82% 30.39 in - North 5.8 mph - N/A   Clear
2:55 AM 48.2 °F - 44.6 °F 87% 30.39 in - North 8.1 mph - N/A   Clear
4:55 AM 46.4 °F 42.4 °F 41.0 °F 81% 30.36 in - North 8.1 mph - N/A   Clear
5:55 AM 46.4 °F 42.9 °F 41.0 °F 81% 30.36 in - North 6.9 mph - N/A   Clear
6:55 AM 46.4 °F 42.9 °F 41.0 °F 81% 30.33 in - North 6.9 mph 18.4 mph N/A   Clear
7:55 AM 46.4 °F 41.5 °F 39.2 °F 76% 30.33 in - North 10.4 mph 24.2 mph N/A   Clear
8:55 AM 46.4 °F 42.4 °F 39.2 °F 76% 30.33 in - North 8.1 mph 19.6 mph N/A   Clear
9:55 AM 50.0 °F - 41.0 °F 71% 30.33 in - NNE 6.9 mph 18.4 mph N/A   Clear
10:55 AM 55.4 °F - 42.8 °F 63% 30.30 in - North 8.1 mph 25.3 mph N/A   Clear
11:55 AM 60.8 °F - 41.0 °F 48% 30.30 in - North 4.6 mph 16.1 mph N/A   Clear
12:55 PM 68.0 °F - 35.6 °F 30% 30.27 in - NNE 8.1 mph 19.6 mph N/A   Clear
1:55 PM 68.0 °F - 28.4 °F 23% 30.24 in - NE 6.9 mph 19.6 mph N/A   Clear
2:55 PM 71.6 °F - 26.6 °F 19% 30.24 in - NNE 6.9 mph 18.4 mph N/A   Clear
3:55 PM 71.6 °F - 26.6 °F 19% 30.21 in - NNE 4.6 mph 16.1 mph N/A   Clear
4:55 PM 69.8 °F - 23.0 °F 17% 30.18 in - NNE 8.1 mph - N/A   Clear
5:55 PM 66.2 °F - 30.2 °F 26% 30.18 in - North 3.5 mph - N/A   Clear
6:55 PM 60.8 °F - 39.2 °F 45% 30.18 in - North 4.6 mph - N/A   Clear
7:55 PM 59.0 °F - 42.8 °F 55% 30.21 in - North 5.8 mph - N/A   Clear
8:55 PM 57.2 °F - 42.8 °F 59% 30.21 in - North 6.9 mph 18.4 mph N/A   Clear
9:55 PM 55.4 °F - 44.6 °F 67% 30.21 in - North 8.1 mph 20.7 mph N/A   Clear
10:55 PM 51.8 °F - 44.6 °F 76% 30.21 in - North 5.8 mph - N/A   Clear
11:55 PM 51.8 °F - 44.6 °F 76% 30.21 in - North 5.8 mph 17.3 mph N/A   Clear